www.pogodaiklimat.ru

Погода и климат >> Архив погоды >> Швеция >> Vaderoarna


ПОГОДА в Vaderoarna

  • Прогноз погоды в Vaderoarna
  • Монитор погоды в Vaderoarna
  • Климат города

АРХИВ ПОГОДЫ в Vaderoarna

Время (UTC), дата Ветер
(напр.,м/с)
 
Видим.   Явления Облачность Т
(С)
Тd
(С)
f
(%)
Тe
(С)
Тes
(С)
Комфортность P
(гПа)
Po
(гПа)
Тmin
(С)
Tmax
(С)
R
(мм)
R24
(мм)
S
(см)
07 12.10 В 7
{10}
н/о н/о +11.3 +9.9 91 +8 +8 1017.2 1014.4
08 12.10 В 6
{10}
н/о н/о +12.1 +9.3 83 +9 +9 1017.7 1014.9
09 12.10 В 5
{8}
н/о н/о +13.0 +10.0 82 +11 +11 1018.1 1015.3
11 12.10 ЮВ 6
{8}
н/о н/о +14.2 +10.8 80 +12 +12 1017.6 1014.8
10 12.10 ЮВ 5
{8}
н/о н/о +13.5 +10.2 80 +12 +12 1018.2 1015.3
12 12.10 ЮВ 8
{12}
н/о н/о +15.2 +10.6 74 +13 +13 1017.1 1014.3
13 12.10 Ю 13
{17}
н/о н/о +14.4 +11.1 81 +11 +11 1017.4 1014.5
14 12.10 Ю 11
{17}
н/о н/о +13.9 +11.7 87 +11 +11 1017.3 1014.5
15 12.10 Ю 10
{16}
н/о н/о +13.8 +11.9 88 +11 +11 1018.1 1015.3
17 12.10 Ю 8
{12}
н/о н/о +13.5 +13.0 97 +11 +11 1018.4 1015.6
16 12.10 Ю 8
{13}
н/о н/о +13.6 +12.1 91 +11 +11 1018.5 1015.7
18 12.10 Ю 8
{10}
н/о н/о +13.5 +13.1 97 +11 +11 1018.5 1015.7 +11.3 +15.3
19 12.10 Ю 7
{9}
н/о н/о +13.3 +12.3 94 +11 +11 1018.4 1015.6
20 12.10 Ю 8
{9}
н/о н/о +13.5 +12.6 94 +11 +11 1019.0 1016.1
21 12.10 Ю 8
{10}
н/о н/о +13.8 +12.6 92 +11 +11 1018.8 1016.0
23 12.10 Ю 10
{12}
н/о н/о +13.9 +12.6 92 +11 +11 1017.8 1015.0
22 12.10 Ю 9
{11}
н/о н/о +13.9 +12.6 92 +11 +11 1018.2 1015.4
00 13.10 Ю 12
{15}
н/о н/о +13.9 +12.5 91 +11 +11 1017.6 1014.7
01 13.10 Ю 13
{16}
н/о н/о +14.2 +12.4 89 +11 +11 1016.9 1014.1
02 13.10 Ю 13
{16}
н/о н/о +14.1 +12.4 89 +11 +11 1016.6 1013.7
03 13.10 Ю 12
{15}
н/о н/о +14.2 +12.4 89 +11 +11 1016.9 1014.1
05 13.10 Ю 11
{14}
н/о н/о +14.3 +12.5 89 +11 +11 1016.4 1013.6
04 13.10 Ю 12
{15}
н/о н/о +14.5 +12.9 90 +11 +11 1016.5 1013.7
06 13.10 Ю 12
{14}
н/о н/о +14.4 +12.5 88 +11 +11 1016.2 1013.4 +13.3 +14.6
07 13.10 Ю 12
{14}
н/о н/о +14.5 +12.6 88 +12 +12 1016.3 1013.4
08 13.10 Ю 12
{15}
н/о н/о +14.4 +12.7 90 +11 +11 1016.5 1013.6
09 13.10 Ю 12 н/о н/о +14.6 +12.7 88 +12 +12 1016.9 1014.0
11 13.10 Ю 12
{15}
н/о н/о +14.4 +12.7 90 +11 +11 1017.0 1014.2
10 13.10 Ю 12
{15}
н/о н/о +14.4 +12.7 90 +11 +11 1016.9 1014.1
12 13.10 Ю 13
{15}
н/о н/о +14.6 +12.8 89 +12 +12 1016.8 1014.0
13 13.10 Ю 12
{15}
н/о н/о +14.4 +12.7 90 +11 +11 1016.6 1013.8
14 13.10 Ю 12
{15}
н/о н/о +14.4 +13.2 92 +11 +11 1016.5 1013.7
15 13.10 Ю 12
{15}
н/о н/о +14.4 +12.7 90 +11 +11 1016.1 1013.3
17 13.10 Ю 12
{15}
н/о н/о +14.7 +12.9 89 +12 +12 1015.8 1013.0
16 13.10 Ю 13
{15}
н/о н/о +14.6 +12.8 89 +12 +12 1015.9 1013.1
18 13.10 Ю 13
{15}
н/о н/о +14.6 +13.4 93 +11 +11 1015.7 1012.9 +14.3 +14.8
19 13.10 Ю 13
{16}
н/о н/о +14.8 +12.9 88 +12 +12 1015.5 1012.7
20 13.10 Ю 12
{16}
н/о н/о +14.4 +12.8 90 +11 +11 1015.7 1012.9
21 13.10 Ю 11
{14}
н/о н/о +14.4 +12.8 90 +11 +11 1015.8 1013.0
23 13.10 Ю 12
{15}
н/о н/о +14.4 +12.6 89 +11 +11 1015.1 1012.3
22 13.10 Ю 12
{14}
н/о н/о +14.4 +12.7 90 +11 +11 1015.5 1012.7
00 14.10 Ю 12
{15}
н/о н/о +14.4 +13.4 94 +11 +11 1014.8 1012.0
01 14.10 Ю 13
{16}
н/о н/о +14.4 +12.3 87 +11 +11 1014.3 1011.5
02 14.10 Ю 12
{16}
н/о н/о +14.5 +12.7 89 +11 +11 1013.8 1011.0
03 14.10 Ю 14
{17}
н/о н/о +14.7 +12.1 84 +12 +12 1013.5 1010.7
05 14.10 Ю 14
{18}
н/о н/о +14.8 +11.4 80 +12 +12 1012.5 1009.7
04 14.10 Ю 14
{18}
н/о н/о +14.8 +11.7 82 +12 +12 1012.9 1010.1
06 14.10 Ю 14
{18}
н/о н/о +14.7 +11.3 80 +12 +12 1012.1 1009.3 +14.3 +15.0
07 14.10 Ю 13
{18}
н/о н/о +14.8 +11.1 78 +12 +12 1012.4 1009.6
08 14.10 Ю 14
{16}
н/о н/о +14.9 +11.0 77 +12 +12 1012.5 1009.7
09 14.10 Ю 13
{17}
н/о н/о +14.9 +11.1 78 +12 +12 1012.4 1009.6
11 14.10 Ю 15
{18}
н/о н/о +14.6 +11.0 79 +11 +11 1011.9 1009.1
10 14.10 Ю 15
{18}
н/о н/о +14.7 +11.0 78 +11 +11 1012.2 1009.4
12 14.10 Ю 14
{18}
н/о н/о +14.7 +10.8 77 +12 +12 1011.3 1008.5
13 14.10 Ю 16
{20}
н/о н/о +14.9 +10.7 76 +12 +12 1010.5 1007.7
14 14.10 Ю 15
{20}
н/о н/о +15.2 +10.6 74 +12 +12 1010.2 1007.4
15 14.10 Ю 14
{20}
н/о н/о +14.9 +11.3 79 +12 +12 1009.6 1006.8
17 14.10 Ю 14
{17}
н/о н/о +14.4 +11.2 81 +11 +11 1008.8 1006.0
16 14.10 Ю 11
{19}
н/о н/о +14.3 +11.3 82 +11 +11 1009.2 1006.4
18 14.10 Ю 15
{18}
н/о н/о +14.3 +10.9 80 +11 +11 1008.6 1005.8 +14.2 +15.3
19 14.10 Ю 15
{18}
н/о н/о +14.2 +11.1 82 +11 +11 1008.3 1005.5
20 14.10 Ю 14
{19}
н/о н/о +14.0 +11.4 84 +11 +11 1008.4 1005.6
21 14.10 Ю 13
{19}
н/о н/о +13.9 +11.6 86 +11 +11 1008.4 1005.6
23 14.10 Ю 12
{16}
н/о н/о +14.0 +11.8 87 +11 +11 1008.4 1005.6
22 14.10 Ю 13
{18}
н/о н/о +14.1 +11.5 84 +11 +11 1008.4 1005.6
00 15.10 Ю 9
{14}
н/о н/о +13.9 +12.7 92 +11 +11 1008.5 1005.7
01 15.10 Ю 11
{13}
н/о н/о +14.0 +11.9 87 +11 +11 1008.8 1006.0
02 15.10 Ю 10
{13}
н/о н/о +14.2 +11.9 86 +11 +11 1008.8 1006.0
03 15.10 Ю 10
{13}
н/о н/о +13.9 +12.0 88 +11 +11 1008.8 1006.0
05 15.10 Ю 10
{12}
н/о н/о +13.7 +12.1 90 +11 +11 1009.4 1006.6
04 15.10 Ю 9
{12}
н/о н/о +13.7 +12.5 92 +11 +11 1008.9 1006.1
06 15.10 Ю 8
{12}
н/о н/о +13.7 +12.2 91 +11 +11 1010.0 1007.2 +13.5 +14.5
07 15.10 Ю 9
{12}
н/о н/о +13.6 +12.5 93 +11 +11 1010.5 1007.6
08 15.10 Ю 7
{11}
н/о н/о +13.5 +12.3 92 +11 +11 1011.0 1008.2
09 15.10 Ю 7
{11}
н/о н/о +13.0 +12.3 96 +10 +10 1011.7 1008.9
11 15.10 Ю 8
{10}
н/о н/о +13.0 +12.2 95 +10 +10 1012.0 1009.2
10 15.10 Ю 7
{10}
н/о н/о +12.9 +12.2 96 +10 +10 1011.8 1008.9
12 15.10 Ю 7
{10}
н/о н/о +13.0 +12.0 94 +10 +10 1012.1 1009.3
13 15.10 Ю 7
{10}
н/о н/о +12.9 +11.3 90 +10 +10 1012.0 1009.2
14 15.10 Ю 6
{9}
н/о н/о +13.0 +10.7 86 +11 +11 1012.2 1009.4
15 15.10 ЮЗ 6
{9}
н/о н/о +12.8 +11.0 89 +10 +10 1012.4 1009.6
17 15.10 ЮЗ 5
{9}
н/о н/о +12.2 +10.0 86 +10 +10 1013.1 1010.3
16 15.10 Ю 5
{9}
н/о н/о +12.4 +11.0 91 +10 +10 1012.9 1010.1
18 15.10 ЮЗ 5
{7}
н/о н/о +12.2 +11.3 94 +10 +10 1013.6 1010.7 +12.1 +13.7
19 15.10 Ю 5
{7}
н/о н/о +12.0 +11.0 94 +9 +9 1014.2 1011.4
20 15.10 ЮЗ 3
{7}
н/о н/о +12.0 +10.8 92 +10 +10 1014.0 1011.2
21 15.10 ЮЗ 3
{7}
н/о н/о +11.2 +9.3 88 +9 +9 1014.3 1011.5
23 15.10 З 3
{5}
н/о н/о +10.7 +7.7 82 +9 +9 1015.1 1012.3
22 15.10 З 4
{6}
н/о н/о +10.4 +9.0 91 +8 +8 1014.5 1011.7
00 16.10 З 4
{5}
н/о н/о +11.0 +9.2 89 +9 +9 1015.7 1012.8
01 16.10 СЗ 4
{5}
н/о н/о +11.3 +9.2 87 +9 +9 1015.6 1012.8
02 16.10 С 2
{5}
н/о н/о +11.3 +9.3 87 +10 +10 1015.5 1012.6
03 16.10 С 3
{4}
н/о н/о +11.5 +9.2 86 +10 +10 1015.7 1012.9
05 16.10 В 3
{5}
н/о н/о +10.8 +9.4 91 +9 +9 1016.4 1013.5
04 16.10 В 3
{5}
н/о н/о +10.9 +9.4 90 +9 +9 1016.1 1013.2
06 16.10 В 4
{5}
н/о н/о +10.0 +9.2 95 +7 +7 1017.3 1014.5 +10.0 +12.3
07 16.10 В 5
{7}
н/о н/о +9.2 +8.9 98 +6 +6 1017.5 1014.6
08 16.10 В 4
{7}
н/о н/о +8.9 +8.6 98 +6 +6 1017.8 1014.9
09 16.10 В 2
{6}
н/о н/о +9.6 +9.3 98 +8 +8 1018.2 1015.3
11 16.10 СВ 2
{3}
н/о н/о +11.0 +9.2 89 +10 +10 1017.7 1014.9
10 16.10 СВ 2
{5}
н/о н/о +10.5 +9.1 91 +9 +9 1018.2 1015.3
12 16.10
{3}
н/о н/о +11.4 +9.7 89 1017.7 1014.9
13 16.10 С 4 н/о н/о +11.2 +9.7 90 +9 +9 1017.7 1014.8
14 16.10 С 3
{6}
н/о н/о +11.5 +10.2 92 +10 +10 1017.3 1014.4
15 16.10 СВ 2 н/о н/о +12.0 +10.2 89 +11 +11 1016.9 1014.0
17 16.10 В 4
{5}
н/о н/о +12.3 +10.4 88 +10 +10 1017.2 1014.3
16 16.10 СВ 2
{4}
н/о н/о +12.2 +10.9 92 +11 +11 1017.1 1014.2
18 16.10 ЮВ 3
{5}
н/о н/о +12.1 +10.5 90 +10 +10 1017.2 1014.4 +8.8 +12.5
19 16.10 ЮВ 4
{4}
н/о н/о +12.2 +10.9 92 +10 +10 1017.1 1014.3
20 16.10 ЮЗ 3
{4}
н/о н/о +12.3 +11.0 92 +11 +11 1016.9 1014.1
21 16.10 ЮЗ 3
{4}
н/о н/о +12.2 +11.3 94 +11 +11 1016.9 1014.0
23 16.10 Ю 5
{6}
н/о н/о +12.1 +10.7 91 +10 +10 1016.2 1013.4
22 16.10 Ю 3
{4}
н/о н/о +12.0 +10.5 91 +10 +10 1016.8 1013.9
00 17.10 Ю 6
{7}
н/о н/о +12.5 +11.1 91 +10 +10 1016.4 1013.6
01 17.10 Ю 6
{9}
н/о н/о +12.6 +11.5 93 +10 +10 1016.0 1013.2
02 17.10 Ю 6 н/о н/о +12.7 +11.4 92 +10 +10 1015.6 1012.8
03 17.10 Ю 7
{9}
н/о н/о +12.7 +11.5 92 +10 +10 1015.4 1012.6
05 17.10 Ю 8
{10}
н/о н/о +13.0 +12.1 94 +10 +10 1015.2 1012.4
04 17.10 Ю 8
{10}
н/о н/о +12.7 +12.1 96 +10 +10 1015.1 1012.3
06 17.10 Ю 8
{10}
н/о н/о +12.8 +12.4 97 +10 +10 1015.2 1012.4 +12.0 +13.0
07 17.10 Ю 9
{11}
н/о н/о +12.7 +12.3 97 +9 +9 1015.5 1012.7
08 17.10 Ю 8
{12}
н/о н/о +12.7 +12.0 96 +10 +10 1015.8 1012.9
09 17.10 Ю 8
{12}
н/о н/о +12.4 +11.9 97 +9 +9 1016.3 1013.4
11 17.10 Ю 6
{10}
н/о н/о +12.4 +12.4 100 +10 +10 1016.1 1013.3
10 17.10 Ю 8
{11}
н/о н/о +12.5 +11.9 96 +9 +9 1016.4 1013.5
14 17.10 Ю 5 н/о н/о +13.1 +12.5 96 +11 +11 1016.0 1013.1
15 17.10 ЮЗ 7 н/о н/о +13.1 +12.4 96 +10 +10 1015.9 1013.0
16 17.10 ЮЗ 7
{10}
н/о н/о +12.8 +12.4 97 +10 +10 1016.0 1013.1
17 17.10 ЮЗ 6
{10}
н/о н/о +13.0 +12.6 97 +10 +10 1016.2 1013.3
18 17.10 ЮЗ 9
{11}
н/о н/о +12.9 +11.9 94 +10 +10 1016.2 1013.4
19 17.10 ЮЗ 9
{12}
н/о н/о +12.9 +11.7 92 +10 +10 1016.4 1013.6
20 17.10 ЮЗ 10
{13}
н/о н/о +12.8 +11.7 93 +9 +9 1016.8 1013.9
21 17.10 ЮЗ 9
{13}
н/о н/о +12.7 +11.8 94 +9 +9 1016.7 1013.9
22 17.10 З 9
{12}
н/о н/о +12.9 +11.3 90 +10 +10 1016.8 1014.0
23 17.10 З 8
{12}
н/о н/о +12.7 +10.8 88 +10 +10 1016.8 1013.9
00 18.10 З 8
{11}
н/о н/о +12.5 +10.1 85 +9 +9 1016.8 1013.9
01 18.10 З 9
{12}
н/о н/о +12.4 +9.8 84 +9 +9 1016.9 1014.1
02 18.10 З 9
{12}
н/о н/о +12.5 +9.1 80 +9 +9 1017.0 1014.1
03 18.10 СЗ 12
{14}
н/о н/о +12.4 +7.3 71 +9 +9 1017.1 1014.3
04 18.10 СЗ 11
{14}
н/о н/о +12.1 +4.9 61 +9 +9 1017.5 1014.6
05 18.10 СЗ 13
{15}
н/о н/о +11.8 +3.7 58 +8 +8 1017.8 1015.0
06 18.10 СЗ 11
{15}
н/о н/о +11.7 +2.9 55 +8 +8 1018.5 1015.7 +11.6 +12.9
07 18.10 СЗ 11
{14}
н/о н/о +11.7 +4.2 60 +8 +8 1019.3 1016.4
08 18.10 СЗ 10
{13}
н/о н/о +11.7 +5.1 64 +8 +8 1020.2 1017.4
09 18.10 СЗ 10
{13}
н/о н/о +11.7 +3.3 56 +8 +8 1020.7 1017.9
10 18.10 СЗ 9
{13}
н/о н/о +11.7 +4.6 62 +8 +8 1021.0 1018.1
11 18.10 СЗ 9
{11}
н/о н/о +11.9 +3.7 57 +9 +9 1021.2 1018.3
12 18.10 СЗ 7
{10}
н/о н/о +12.0 +4.1 58 +9 +9 1021.2 1018.4
13 18.10 СЗ 9
{10}
н/о н/о +11.9 +3.3 56 +9 +9 1021.1 1018.2
14 18.10 СЗ 9
{11}
н/о н/о +11.9 +4.7 61 +9 +9 1021.1 1018.2
15 18.10 З 9
{11}
н/о н/о +11.9 +4.3 60 +9 +9 1021.3 1018.5
16 18.10 З 9
{11}
н/о н/о +11.8 +2.9 54 +9 +9 1021.6 1018.8
17 18.10 З 8
{11}
н/о н/о +11.7 +4.9 63 +9 +9 1021.9 1019.0
18 18.10 З 8
{10}
н/о н/о +11.9 +5.2 64 +9 +9 1022.1 1019.3 +11.6 +12.1
19 18.10 З 7
{10}
н/о н/о +11.9 +5.2 64 +9 +9 1022.5 1019.6
20 18.10 СЗ 5
{10}
н/о н/о +11.9 +6.0 67 +10 +10 1022.8 1019.9
21 18.10 СЗ 3
{8}
н/о н/о +12.0 +3.9 58 +11 +11 1022.8 1019.9
22 18.10 С 2
{6}
н/о н/о +11.4 +4.7 63 +10 +10 1023.0 1020.1
23 18.10 С 3
{4}
н/о н/о +11.5 +2.6 54 +10 +10 1023.2 1020.3
00 19.10 СВ 2
{4}
н/о н/о +11.3 +0.6 48 +11 +11 1023.1 1020.2
01 19.10 С 2
{3}
н/о н/о +10.8 +1.0 51 +10 +10 1023.3 1020.4
02 19.10 СВ 3
{3}
н/о н/о +10.4 +3.0 60 +9 +9 1023.1 1020.3
03 19.10 СВ 3
{4}
н/о н/о +10.1 +3.2 62 +8 +8 1023.0 1020.2
04 19.10 В 4
{5}
н/о н/о +8.9 +5.3 78 +6 +6 1022.8 1019.9
05 19.10 В 3
{5}
н/о н/о +8.7 +3.6 70 +6 +6 1022.8 1019.9
06 19.10 В 2
{4}
н/о н/о +8.2 +3.9 74 +6 +6 1023.2 1020.3 +8.2 +12.1
07 19.10 ЮВ 2
{4}
н/о н/о +9.4 +4.2 70 +8 +8 1023.4 1020.5

 

Местоположение метеостанции Vaderoarna (Швеция): широта 58.58 долгота 11.07 высота над уровнем моря 24 м.

В архиве по умолчанию представлена погода в Vaderoarna за последнюю неделю. Архивные данные за месяц целиком и за предыдущие месяцы, начиная с января 2011 года, Вы можете получить, выбрав интересующий диапазон дат из раскрывающегося списка и нажав кнопку "Ввод!".


*Определитесь, кто Вы:
робот инопланетянин человек

Внимание! Время в таблицах - всемирное. Для получения местного времени необходимо прибавить поправку, которая в Vaderoarna равна 1 ч.

Смотрите также архив погоды в соседних городах и на ближайших метеорологических станциях:

Погода в Hud (Швеция) (22 км)
Погода в Nordkoster (Швеция) (36 км)
Погода в Maseskar (Швеция) (56 км)
Погода в Ferder Fyr (Норвегия) (59 км)
Погода в Stromtangen Fyr (Норвегия) (65 км)
Погода в Kroppefjall-Granan (Швеция) (66 км)
Погода в Svenner Fyr (Норвегия) (69 км)
Погода в Torpabron (Швеция) (77 км)
Погода в Sarpsborg (Норвегия) (78 км)
Погода в Bergarud (Швеция) (78 км)

Пояснения к столбцам:

Ветер - указаны скорость ветра в м/с - средняя за 10 мин, порывы в срок и между сроками (в фигурных скобках) и направление, откуда дует ветер: С - северный, СВ - северо-восточный, В - восточный, ЮВ - юго-восточный, Ю - южный, ЮЗ - юго-западный, З - западный, СЗ - северо-западный.
Видимость - горизонтальная дальность видимости в метрах или километрах. При видимости от 1 до 10 км при отсутствии осадков обычно наблюдается дымка, при ухудшении видимости до 1 км и менее - туман. В сухую погоду видимость может ухудшаться дымом, пылью или мглою.
Явления - указаны атмосферные явления, наблюдавшиеся в срок или в последний час перед сроком; фигурными скобками обозначены явления, наблюдавшиеся между сроками (за 1-3 часа до срока); квадратными скобками обозначены град или гололедные отложения с указанием их диаметра в мм.
Облачность - указаны через наклонную черту общая и нижняя облачность в баллах и высота нижней границы облаков в метрах; квадратными скобками обозначены формы облаков: Ci - перистые, Cs - перисто-слоистые, Cc - перисто-кучевые, Ac - высококучевые, As - высокослоистые, Sc - слоисто-кучевые, Ns - слоисто-дождевые, Cu - кучевые, Cb - кучево-дождевые. Подробнее классификацию облаков см. в Атласе облаков (PDF).
T - Температура воздуха - температура, измеренная на высоте 2 м над землей.
Td - Температура точки росы - температура, при понижении до которой содержащийся в воздухе водяной пар достигнет насыщения.
f - Относительная влажность воздуха - влажноcть воздуха, измеренная на высоте 2 м над землей.
Te - Эффективная температура - температура, которую ощущает одетый по сезону человек в тени. Характеристика душности погоды. При расчете учитывается влияние влажности воздуха и скорости ветра на теплоощущения человека.
Tes - Эффективная температура на солнце - температура, которую ощущает человек, с поправкой на солнечный нагрев. Характеристика знойности погоды. Зависит от высоты солнца над горизонтом, облачности и скорости ветра. Ночью, в пасмурную погоду, а также при ветре 12 м/с и более поправка равна нулю.
P - Атмосферное давление - приведенное к уровню моря атмосферное давление.
Po - Атмосферное давление - измеренное на уровне метеостанции атмосферное давление.
Tmin - Минимальная температура - минимум температуры воздуха на высоте 2 м над землей.
Tmax - Максимальная температура - максимум температуры воздуха на высоте 2 м над землей.
R - Количество осадков - Количество выпавших осадков за период времени, мм. При наведении курсора мыши на число - период времени, за который выпало указанное количество осадков.
R24 - Количество осадков - Количество выпавших осадков за 24 часа, мм.
S - Снежный покров - Высота снежного покрова, см. При наведении курсора мыши на число - состояние снежного покрова и степень покрытия местности в баллах.